Regional Weather Roundup
Issued by NWS

Home | Current Version | Previous Version | Text Only | Print | Product List | Glossary On
Versions: 1 2 3 4 5 6 7 8 9 10 11 12 13 14 15 16 17 18 19 20 21 22 23 24 25 26 27 28 29 30 31 32 33 34 35 36 37 38 39 40 41 42 43 44 45 46 47 48 49 50
000
ASUS43 KLMK 272310
RWRKY
KENTUCKY REGIONAL WEATHER ROUNDUP
NATIONAL WEATHER SERVICE LOUISVILLE KY
700 PM EDT FRI MAY 27 2016

NOTE "FAIR" INDICATES FEW OR NO CLOUDS BELOW 12,000 FEET
WITH NO SIGNIFICANT WEATHER AND/OR OBSTRUCTIONS TO VISIBILITY.

KYZ001>023-026-027-061>063-070>075-280000-
WESTERN AND SOUTH CENTRAL KENTUCKY

CITY           SKY/WX    TMP DP  RH WIND       PRES   REMARKS
PADUCAH        CLOUDY    79  66  64 S8        29.88S
HENDERSON      MOSUNNY   82  63  51 S12G20    29.89R
OWENSBORO      SUNNY     84  63  49 SW17G29   29.91F
HOPKINSVILLE   CLOUDY    80  66  62 S6        29.92F
BOWLING GREEN  MOSUNNY   84  64  50 S6        29.93F
GLASGOW        SUNNY     84  64  50 S8        29.94F
$$

KYZ024-025-028>034-038-045-046-053-280000-
NORTH CENTRAL KENTUCKY

CITY           SKY/WX    TMP DP  RH WIND       PRES   REMARKS
LOUISVILLE/SDF PTSUNNY   86  63  45 S13G20    29.93F
LOUISVILLE/LOU PTSUNNY   85  65  51 SE10      29.94F
FORT KNOX      MOSUNNY   82  65  56 S7        29.93F
$$

KYZ035>037-039>044-047>052-055>060-089>105-280000-
NORTHEAST KENTUCKY

CITY           SKY/WX    TMP DP  RH WIND       PRES   REMARKS
LEXINGTON      MOSUNNY   83  65  54 S6        29.99F
COVINGTON      PTSUNNY   83  64  52 SW7       29.97F
FRANKFORT      MOSUNNY   84  64  50 S8        29.96F
$$

KYZ054-064>069-076>088-106>120-280000-
SOUTHEAST KENTUCKY

CITY           SKY/WX    TMP DP  RH WIND       PRES   REMARKS
JACKSON        LGT RAIN  69  62  78 E3        30.03F
LONDON         PTSUNNY   79  63  57 S10       30.01F
SOMERSET       PTSUNNY   77  64  65 W8G16     30.01R
MIDDLESBORO    CLOUDY    70  68  93 CALM      30.05S
MONTICELLO     PTCLDY    76  71  85 VRB6      30.01S
$$





USA.gov is the U.S. government's official web portal to all federal, state and local government web resources and services.